{"data":{"norad_id":67474,"epoch":"2026-05-25T03:18:42.948576Z","epoch_age_seconds":59212,"freshness":"FRESH","line1":"1 67474U 26009A   26145.13799709  .00005366  00000+0  22922-3 0  9997","line2":"2 67474  97.4549 219.1645 0013407 188.0047 172.0978 15.23217873 19765","mean_motion":15.23217873,"eccentricity":0.0013407,"inclination_deg":97.4549,"raan_deg":219.1645,"arg_perigee_deg":188.0047,"mean_anomaly_deg":172.0978,"bstar":0.00022922,"rev_number":1976,"period_min":94.536705846544,"perigee_km":486.9256892053,"apogee_km":505.35838101004,"semimajor_km":6874.2790351077,"source":"CELESTRAK","updated_at":"2026-05-25T13:38:07.017436Z"}}